[ hide orbit diagram ]
For accurate long-term ephemerides, please instead use our Horizons system.This orbit viewer was implemented using two-body methods, and hence should not be used for determining accurate long-term trajectories (over several years or decades) or planetary encounter circumstances.
Orbital Elements at Epoch 2459000.5 (2020-May-31.0) TDB
Reference: JPL 15 (heliocentric ecliptic J2000)
Element | Value | Uncertainty (1-sigma) | Units |
e | .01240101379987569 | 5.5653e-08 | |
a | 3.119025150582782 | 3.8917e-08 | au |
q | 3.080346076648245 | 1.6677e-07 | au |
i | 10.18243299154546 | 5.7645e-06 | deg |
node | 131.4707255860807 | 3.3589e-05 | deg |
peri | 243.4365047879052 | 0.00023522 | deg |
M | 184.7942289218144 | 0.00023325 | deg |
tp | 2459979.702804069539 (2023-Feb-04.20280407) | 0.0013067 | TDB |
period | 2011.994281328354 5.51 | 3.7656e-05 1.031e-07 | d yr |
n | .178926949912761 | 3.3488e-09 | deg/d |
Q | 3.157704224517318 | 3.9399e-08 | au |
|
| | Orbit Determination Parameters
Additional Information
|
[ show covariance matrix ]
Physical Parameter Table
Parameter |
Symbol |
Value |
Units |
Sigma |
Reference |
Notes |
absolute magnitude |
H |
15.9 |
|
n/a |
MPO427260 |
|
|
214416 (2005 PK) Discovered 2005-Aug-02 by Gilmore, A. C. at Lake Tekapo |
Reference: 20090509/Numbers.arc | Last Updated: 2009-05-11 |
|
[ show close-approach data ]
|